This is the latest recevied weather packets stored in our database for station/object EA2FBA-10. If no packets are shown the sender has not sent any weather packets the latest 10 day(s).
| Time | Temp. | Humidity | Pressure | Rain* | Wind** | Luminosity | Snow |
|---|---|---|---|---|---|---|---|
| 1788046818 | 20° C | 59% | 957.5 hPa | - | - | - | - |
| 1788045928 | 20° C | 58% | 957.5 hPa | - | - | - | - |
| 1788045918 | 20° C | 58% | 957.5 hPa | - | - | - | - |
| 1788045018 | 20° C | 58% | 957.5 hPa | - | - | - | - |
| 1788044127 | 20.56° C | 58% | 957.7 hPa | - | - | - | - |
| 1788044117 | 20.56° C | 58% | 957.7 hPa | - | - | - | - |
| 1788043227 | 20.56° C | 58% | 957.7 hPa | - | - | - | - |
| 1788043217 | 20.56° C | 58% | 957.7 hPa | - | - | - | - |
| 1788042328 | 20° C | 57% | 956.9 hPa | - | - | - | - |
| 1788042317 | 20° C | 57% | 956.9 hPa | - | - | - | - |
| 1788041417 | 20.56° C | 57% | 957.9 hPa | - | - | - | - |
| 1788040517 | 20.56° C | 57% | 957.8 hPa | - | - | - | - |
| 1788039632 | 20.56° C | 57% | 957.9 hPa | - | - | - | - |
| 1788039617 | 20.56° C | 57% | 957.9 hPa | - | - | - | - |
| 1788038717 | 21.11° C | 57% | 958 hPa | - | - | - | - |
| 1788037826 | 21.11° C | 56% | 958 hPa | - | - | - | - |
| 1788037817 | 21.11° C | 56% | 958 hPa | - | - | - | - |
| 1788036917 | 21.11° C | 55% | 958.1 hPa | - | - | - | - |
| 1788036026 | 21.11° C | 55% | 958.3 hPa | - | - | - | - |
| 1788036016 | 21.11° C | 55% | 958.3 hPa | - | - | - | - |
| 1788035116 | 21.67° C | 52% | 957.9 hPa | - | - | - | - |
| 1788034226 | 21.67° C | 51% | 957.8 hPa | - | - | - | - |
| 1788034216 | 21.67° C | 51% | 957.8 hPa | - | - | - | - |
| 1788033331 | 22.22° C | 50% | 957.7 hPa | - | - | - | - |
| 1788033316 | 22.22° C | 50% | 957.7 hPa | - | - | - | - |
* Rain since midnight (hover to see other rain measurements)
** Current wind speed in m/s (hover to see current wind gust speed)